Location: Taukkyan
(23.1052°N, 94.0030°E)
Time: 10:28:35
(UTC+00:00)

Cosmos 1833 Rocket - Pass Details

Date: 06 July 2020
Orbit: 832 x 840 km, 71.0° (Epoch: 14 August)

Event Time Altitude Azimuth Distance (km) Brightness Sun altitude
Exits shadow 21:32:35 24° 277° (W) 1,666 3.8 -19.0°
Maximum altitude 21:33:34 25° 293° (WNW) 1,617 3.9 -18.8°
Drops below altitude 10° 21:38:06 10° 348° (NNW) 2,437 5.4 -18.0°
Sets 21:40:59 0° 1° (N) 3,374 6.4 -17.4°
